Location: Arborea
(39.7744°N, 8.5819°E)
Time: 12:54:29
(UTC+00:00)

deb Chang Zheng 4 - Pass Details

Date: 24 October 2021
Orbit: 595 x 616 km, 98.6° (Epoch: 07 December)

Event Time Altitude Azimuth Distance (km) Brightness Sun altitude
Rises 17:39:24 0° 174° (S) 2,820 6.9 -13.3°
Reaches altitude 10° 17:41:35 10° 178° (S) 1,924 6.1 -13.7°
Maximum altitude 17:45:42 59° 258° (WSW) 692 4.1 -14.5°
Drops below altitude 10° 17:49:52 10° 339° (NNW) 1,948 6.3 -15.3°
Sets 17:52:05 0° 343° (NNW) 2,859 7.2 -15.7°
